Weather History for Monroe, MI

Change the Weather History Date:

Wednesday, January 9, 2013

  Actual Average Record
Temperature  
Mean Temperature 38 °F -  
Max Temperature 46 °F 30 °F 60 °F (1965)
Min Temperature 28 °F 14 °F -11 °F (2014)
Degree Days  
Heating Degree Days 27    
Moisture  
Dew Point 31 °F    
Average Humidity 72    
Maximum Humidity 93    
Minimum Humidity 49    
Precipitation  
Precipitation 0.00 in - - ()
Sea Level Pressure  
Sea Level Pressure 30.18 in    
Wind  
Wind Speed 9 mph (SW)    
Max Wind Speed 20 mph    
Max Gust Speed 28 mph    
Visibility 10 miles    
Events Rain    
Averages and records for this station are not official NWS values.
T = Trace of Precipitation, MM = Missing Value Source: NWS Daily Summary

Daily Weather History Graph

Daily Weather History Graph

Search for Another Location

Airport:

Trip Planner

Search our weather history database for the weather conditions in past years. The results will help you decide how hot, cold, wet, or windy it might be!

Date:

Astronomy

Jan. 09, 2013 Rise Set
Actual Time 8:01 AM EST 5:21 PM EST
Civil Twilight 7:29 AM EST 5:52 PM EST
Nautical Twilight 6:55 AM EST 6:27 PM EST
Astronomical Twilight 6:21 AM EST 7:00 PM EST
Moon 5:39 AM EST (1/9) 3:21 PM EST (1/9)
Length of Visible Light 10h 22m
Length of Day
9h 20m
Waning Crescent, 6% of the Moon is Illuminated
Jan 9
Waning Crescent
Jan 11
New
Jan 18
First Quarter
Jan 26
Full
Feb 3
Last Quarter

Hourly Weather History & Observations

Time (EST) Temp. Windchill Dew Point Humidity Pressure Visibility Wind Dir Wind Speed Gust Speed Precip Events Conditions
12:16 AM 32.0 °F 27.5 °F 28.4 °F 87% 30.16 in 7.0 mi South 4.6 mph - N/A   Clear
12:36 AM 32.0 °F 27.5 °F 28.4 °F 87% 30.16 in 7.0 mi South 4.6 mph - N/A   Clear
12:51 AM 30.2 °F 25.4 °F 28.4 °F 93% 30.15 in 7.0 mi South 4.6 mph - N/A   Clear
1:11 AM 30.2 °F 26.7 °F 28.4 °F 93% 30.15 in 7.0 mi South 3.5 mph - N/A   Clear
1:31 AM 32.0 °F 28.7 °F 28.4 °F 87% 30.13 in 7.0 mi SSE 3.5 mph - N/A   Clear
1:51 AM 32.0 °F 27.5 °F 28.4 °F 87% 30.12 in 7.0 mi South 4.6 mph - N/A   Clear
2:11 AM 32.0 °F 28.7 °F 28.4 °F 87% 30.11 in 7.0 mi SSE 3.5 mph - N/A   Clear
2:31 AM 30.2 °F 26.7 °F 28.4 °F 93% 30.11 in 7.0 mi South 3.5 mph - N/A   Clear
2:51 AM 30.2 °F 26.7 °F 28.4 °F 93% 30.11 in 7.0 mi South 3.5 mph - N/A   Clear
3:11 AM 30.2 °F - 28.4 °F 93% 30.11 in 7.0 mi Calm Calm - N/A   Clear
3:32 AM 32.0 °F - 28.4 °F 87% 30.11 in 7.0 mi Calm Calm - N/A   Mostly Cloudy
3:52 AM 33.8 °F 27.0 °F 30.2 °F 87% 30.10 in 10.0 mi South 8.1 mph - N/A   Overcast
4:12 AM 35.6 °F 29.2 °F 30.2 °F 81% 30.09 in 10.0 mi South 8.1 mph - N/A   Overcast
4:32 AM 37.4 °F 30.8 °F 32.0 °F 81% 30.08 in 10.0 mi South 9.2 mph - N/A   Overcast
4:52 AM 37.4 °F 30.8 °F 32.0 °F 81% 30.07 in 10.0 mi SSW 9.2 mph - N/A   Overcast
5:12 AM 37.4 °F 32.1 °F 32.0 °F 81% 30.07 in 10.0 mi SSW 6.9 mph - N/A   Overcast
5:32 AM 39.2 °F 33.0 °F 33.8 °F 81% 30.06 in 10.0 mi SSW 9.2 mph - N/A   Overcast
5:52 AM 41.0 °F 33.9 °F 33.8 °F 76% 30.06 in 10.0 mi SSW 12.7 mph 20.7 mph N/A Rain Rain
6:12 AM 42.8 °F 36.2 °F 33.8 °F 70% 30.07 in 10.0 mi SW 12.7 mph 19.6 mph N/A   Overcast
6:33 AM 42.8 °F 37.0 °F 33.8 °F 70% 30.07 in 10.0 mi SW 10.4 mph 16.1 mph N/A Rain Light Rain
7:13 AM 42.8 °F 35.4 °F 33.8 °F 70% 30.05 in 10.0 mi SW 15.0 mph 19.6 mph N/A   Overcast
7:33 AM 42.8 °F 35.1 °F 33.8 °F 70% 30.07 in 10.0 mi SW 16.1 mph - N/A   Scattered Clouds
7:53 AM 42.8 °F 35.1 °F 35.6 °F 76% 30.07 in 10.0 mi SW 16.1 mph - N/A   Clear
8:13 AM 42.8 °F 35.8 °F 33.8 °F 70% 30.07 in 10.0 mi SW 13.8 mph - N/A   Clear
8:33 AM 42.8 °F 34.8 °F 33.8 °F 70% 30.08 in 10.0 mi SW 17.3 mph 25.3 mph N/A   Clear
8:53 AM 41.0 °F 32.5 °F 33.8 °F 76% 30.09 in 10.0 mi SW 17.3 mph 25.3 mph N/A   Clear
9:13 AM 41.0 °F 32.8 °F 33.8 °F 76% 30.10 in 10.0 mi WSW 16.1 mph 25.3 mph N/A   Clear
9:33 AM 41.0 °F 32.5 °F 35.6 °F 81% 30.10 in 10.0 mi WSW 17.3 mph 21.9 mph N/A   Clear
10:14 AM 42.8 °F 34.5 °F 35.6 °F 76% 30.13 in 10.0 mi WSW 18.4 mph 27.6 mph N/A   Clear
10:34 AM 42.8 °F 34.5 °F 35.6 °F 76% 30.13 in 10.0 mi WSW 18.4 mph 24.2 mph N/A   Clear
10:54 AM 42.8 °F 35.1 °F 35.6 °F 76% 30.13 in 10.0 mi WSW 16.1 mph 25.3 mph N/A   Clear
11:14 AM 42.8 °F 35.1 °F 35.6 °F 76% 30.14 in 10.0 mi WSW 16.1 mph 24.2 mph N/A   Clear
11:34 AM 44.6 °F 36.9 °F 35.6 °F 71% 30.14 in 10.0 mi WSW 18.4 mph 24.2 mph N/A   Clear
11:54 AM 44.6 °F 36.9 °F 35.6 °F 71% 30.14 in 10.0 mi WSW 18.4 mph 26.5 mph N/A   Clear
12:14 PM 44.6 °F 36.9 °F 35.6 °F 71% 30.14 in 10.0 mi WSW 18.4 mph - N/A   Clear
12:34 PM 44.6 °F 37.4 °F 35.6 °F 71% 30.13 in 10.0 mi WSW 16.1 mph 25.3 mph N/A   Clear
12:55 PM 44.6 °F 37.2 °F 33.8 °F 66% 30.13 in 10.0 mi WSW 17.3 mph 21.9 mph N/A   Clear
1:15 PM 44.6 °F 37.8 °F 33.8 °F 66% 30.13 in 10.0 mi WSW 15.0 mph 25.3 mph N/A   Clear
1:35 PM 44.6 °F 37.2 °F 35.6 °F 71% 30.13 in 10.0 mi WSW 17.3 mph 24.2 mph N/A   Clear
1:55 PM 44.6 °F 37.4 °F 33.8 °F 66% 30.14 in 10.0 mi WSW 16.1 mph 25.3 mph N/A   Clear
2:15 PM 46.4 °F 40.1 °F 35.6 °F 66% 30.14 in 10.0 mi WSW 15.0 mph - N/A   Clear
2:35 PM 46.4 °F 39.2 °F 33.8 °F 62% 30.15 in 10.0 mi WSW 18.4 mph 21.9 mph N/A   Clear
2:55 PM 46.4 °F 39.2 °F 33.8 °F 62% 30.17 in 10.0 mi WSW 18.4 mph 23.0 mph N/A   Clear
3:15 PM 46.4 °F 39.0 °F 33.8 °F 62% 30.17 in 10.0 mi WSW 19.6 mph 25.3 mph N/A   Clear
3:35 PM 46.4 °F 39.8 °F 32.0 °F 57% 30.18 in 10.0 mi WSW 16.1 mph 24.2 mph N/A   Clear
3:56 PM 46.4 °F 40.4 °F 30.2 °F 53% 30.19 in 10.0 mi WSW 13.8 mph 23.0 mph N/A   Clear
4:16 PM 46.4 °F 40.1 °F 30.2 °F 53% 30.20 in 10.0 mi WSW 15.0 mph 21.9 mph N/A   Clear
4:31 PM 44.6 °F 37.8 °F 30.2 °F 57% 30.21 in 10.0 mi WSW 15.0 mph 19.6 mph N/A   Clear
4:51 PM 44.6 °F 37.4 °F 28.4 °F 53% 30.22 in 10.0 mi WSW 16.1 mph - N/A   Clear
5:11 PM 44.6 °F 38.4 °F 28.4 °F 53% 30.22 in 10.0 mi WSW 12.7 mph - N/A   Clear
5:31 PM 42.8 °F 36.2 °F 28.4 °F 57% 30.23 in 10.0 mi WSW 12.7 mph - N/A   Clear
5:51 PM 42.8 °F 36.6 °F 28.4 °F 57% 30.25 in 10.0 mi WSW 11.5 mph - N/A   Clear
6:11 PM 42.8 °F 35.1 °F 26.6 °F 53% 30.27 in 10.0 mi West 16.1 mph 20.7 mph N/A   Clear
6:31 PM 42.8 °F 35.4 °F 24.8 °F 49% 30.28 in 10.0 mi West 15.0 mph 19.6 mph N/A   Clear
7:12 PM 42.8 °F 35.8 °F 26.6 °F 53% 30.31 in 10.0 mi West 13.8 mph 18.4 mph N/A   Clear
7:32 PM 41.0 °F 34.3 °F 26.6 °F 57% 30.32 in 10.0 mi WNW 11.5 mph - N/A   Clear
7:52 PM 39.2 °F 33.0 °F 26.6 °F 61% 30.32 in 10.0 mi WNW 9.2 mph 16.1 mph N/A   Clear
8:12 PM 39.2 °F 33.0 °F 26.6 °F 61% 30.34 in 10.0 mi West 9.2 mph - N/A   Clear
8:32 PM 39.2 °F 32.5 °F 26.6 °F 61% 30.35 in 10.0 mi WNW 10.4 mph - N/A   Clear
9:12 PM 37.4 °F 31.4 °F 26.6 °F 65% 30.37 in 10.0 mi West 8.1 mph - N/A   Clear
9:32 PM 37.4 °F 32.8 °F 26.6 °F 65% 30.39 in 10.0 mi West 5.8 mph - N/A   Clear
9:52 PM 35.6 °F 29.9 °F 26.6 °F 70% 30.39 in 10.0 mi West 6.9 mph - N/A   Clear
10:13 PM 37.4 °F 34.9 °F 26.6 °F 65% 30.40 in 10.0 mi WNW 3.5 mph - N/A   Clear
10:33 PM 35.6 °F 30.7 °F 26.6 °F 70% 30.41 in 10.0 mi West 5.8 mph - N/A   Clear
10:53 PM 35.6 °F - 26.6 °F 70% 30.41 in 10.0 mi Calm Calm - N/A   Clear
11:13 PM 33.8 °F - 26.6 °F 75% 30.43 in 10.0 mi Calm Calm - N/A   Clear
11:33 PM 32.0 °F - 26.6 °F 80% 30.44 in 10.0 mi Calm Calm - N/A   Clear
11:53 PM 28.4 °F 24.6 °F 24.8 °F 86% 30.45 in 10.0 mi South 3.5 mph - N/A   Clear